Perryton, TX

12:40 AM CDT on March 23, 2017 (GMT -0500)
Perryton Ochiltree County

Weather History for KPYX - April, 2013

Change the Weather History Date:

Monday, April 29, 2013

  Actual Average Record
Temperature  
Mean Temperature 72 °F -  
Max Temperature 93 °F 70 °F 93 °F (2011)
Min Temperature 51 °F 42 °F 30 °F (2016)
Cooling Degree Days 6    
Growing Degree Days 22 (Base 50)    
Moisture  
Dew Point 34 °F    
Average Humidity 29    
Maximum Humidity 58    
Minimum Humidity 10    
Precipitation  
Precipitation 0.00 in - - ()
Sea Level Pressure  
Sea Level Pressure 29.73 in    
Wind  
Wind Speed 14 mph (SSW)    
Max Wind Speed 32 mph    
Max Gust Speed 40 mph    
Visibility 10 miles    
Events      
Averages and records for this station are not official NWS values.
T = Trace of Precipitation, MM = Missing Value Source: NWS Daily Summary

Daily Weather History Graph

Daily Weather History Graph

Search for Another Location

Airport or City:

Trip Planner

Search our weather history database for the weather conditions in past years. The results will help you decide how hot, cold, wet, or windy it might be!

Date:

Astronomy

Apr. 29, 2013 Rise Set
Actual Time 6:51 AM CDT 8:29 PM CDT
Civil Twilight 6:24 AM CDT 8:57 PM CDT
Nautical Twilight 5:51 AM CDT 9:30 PM CDT
Astronomical Twilight 5:16 AM CDT 10:05 PM CDT
Moon No Moon Rise 10:17 AM CDT (4/29)
Length of Visible Light 14h 32m
Length of Day
13h 37m
Waning Gibbous, 80% of the Moon is Illuminated
Apr 29
Waning Gibbous
May 2
Last Quarter
May 9
New
May 17
First Quarter
May 24
Full

Hourly Weather History & Observations

Time (CDT) Temp. Dew Point Humidity Pressure Visibility Wind Dir Wind Speed Gust Speed Precip Events Conditions
12:15 AM 58.1 °F 36.5 °F 44% 29.81 in 10.0 mi SSE 9.2 mph - N/A   Clear
12:35 AM 55.8 °F 36.1 °F 48% 29.81 in 10.0 mi SE 10.4 mph - N/A   Clear
1:15 AM 55.2 °F 36.9 °F 50% 29.80 in 10.0 mi SSE 8.1 mph - N/A   Clear
1:35 AM 54.5 °F 37.0 °F 52% 29.81 in 10.0 mi SSE 10.4 mph - N/A   Clear
1:55 AM 54.7 °F 37.2 °F 52% 29.80 in 10.0 mi SSE 10.4 mph - N/A   Clear
2:15 AM 54.5 °F 37.6 °F 53% 29.80 in 10.0 mi SSE 10.4 mph - N/A   Clear
2:35 AM 54.7 °F 37.6 °F 53% 29.80 in 10.0 mi SSE 9.2 mph - N/A   Clear
2:55 AM 54.1 °F 37.6 °F 54% 29.80 in 10.0 mi SSE 9.2 mph - N/A   Clear
3:15 AM 53.2 °F 37.4 °F 55% 29.80 in 10.0 mi SSE 9.2 mph - N/A   Clear
3:35 AM 51.8 °F 37.4 °F 58% 29.80 in 10.0 mi SSE 10.4 mph - N/A   Clear
3:55 AM 53.4 °F 37.4 °F 55% 29.80 in 10.0 mi SSE 9.2 mph - N/A   Clear
4:15 AM 52.2 °F 37.4 °F 57% 29.80 in 10.0 mi SSE 10.4 mph - N/A   Clear
4:35 AM 52.7 °F 37.4 °F 56% 29.79 in 10.0 mi South 10.4 mph - N/A   Clear
4:55 AM 51.6 °F 37.4 °F 58% 29.78 in 10.0 mi South 9.2 mph - N/A   Clear
5:15 AM 52.3 °F 37.4 °F 57% 29.78 in 10.0 mi South 10.4 mph - N/A   Clear
5:35 AM 54.3 °F 37.4 °F 53% 29.78 in 10.0 mi South 10.4 mph - N/A   Clear
5:55 AM 54.3 °F 36.9 °F 52% 29.78 in 10.0 mi South 9.2 mph - N/A   Clear
6:15 AM 53.2 °F 36.5 °F 53% 29.79 in 10.0 mi South 8.1 mph - N/A   Clear
6:35 AM 51.6 °F 36.7 °F 57% 29.79 in 10.0 mi South 10.4 mph - N/A   Clear
6:55 AM 54.1 °F 36.9 °F 52% 29.80 in 10.0 mi South 11.5 mph - N/A   Clear
7:15 AM 54.7 °F 37.0 °F 51% 29.80 in 10.0 mi South 10.4 mph - N/A   Clear
7:35 AM 57.7 °F 37.8 °F 47% 29.80 in 10.0 mi SSW 12.7 mph - N/A   Clear
7:55 AM 59.9 °F 37.9 °F 44% 29.80 in 10.0 mi SSW 12.7 mph - N/A   Clear
8:15 AM 63.5 °F 39.2 °F 41% 29.80 in 10.0 mi SSW 17.3 mph 21.9 mph N/A   Clear
8:35 AM 66.4 °F 39.4 °F 37% 29.80 in 10.0 mi SW 16.1 mph - N/A   Clear
8:55 AM 70.0 °F 39.6 °F 33% 29.81 in 10.0 mi SW 23.0 mph 29.9 mph N/A   Clear
9:15 AM 72.5 °F 40.1 °F 31% 29.80 in 10.0 mi WSW 27.6 mph 34.5 mph N/A   Clear
9:35 AM 74.3 °F 40.3 °F 29% 29.80 in 10.0 mi WSW 27.6 mph 34.5 mph N/A   Clear
9:55 AM 76.1 °F 40.8 °F 28% 29.80 in 10.0 mi WSW 27.6 mph 36.8 mph N/A   Clear
10:15 AM 77.9 °F 39.9 °F 26% 29.79 in 10.0 mi SW 32.2 mph 40.3 mph N/A   Clear
10:35 AM 79.2 °F 40.1 °F 25% 29.79 in 10.0 mi SW 28.8 mph 35.7 mph N/A   Clear
10:55 AM 80.8 °F 39.4 °F 23% 29.78 in 10.0 mi SW 28.8 mph 35.7 mph N/A   Clear
11:15 AM 81.5 °F 37.0 °F 20% 29.78 in 10.0 mi WSW 26.5 mph 34.5 mph N/A   Clear
11:35 AM 82.6 °F 36.7 °F 19% 29.77 in 10.0 mi SW 24.2 mph 31.1 mph N/A   Clear
11:55 AM 83.5 °F 36.0 °F 18% 29.77 in 10.0 mi SW 21.9 mph 29.9 mph N/A   Clear
12:15 PM 84.2 °F 36.3 °F 18% 29.77 in 10.0 mi WSW 19.6 mph 34.5 mph N/A   Clear
12:35 PM 84.6 °F 36.0 °F 18% 29.76 in 10.0 mi WSW 19.6 mph 25.3 mph N/A   Clear
12:55 PM 86.0 °F 35.1 °F 16% 29.75 in 10.0 mi WSW 16.1 mph 29.9 mph N/A   Clear
1:15 PM 88.3 °F 32.0 °F 13% 29.74 in 10.0 mi SSW 20.7 mph 31.1 mph N/A   Clear
1:35 PM 89.6 °F 31.8 °F 13% 29.73 in 10.0 mi SSW 24.2 mph 35.7 mph N/A   Clear
1:55 PM 91.0 °F 31.6 °F 12% 29.71 in 10.0 mi SSW 20.7 mph 31.1 mph N/A   Clear
2:35 PM 91.4 °F 31.6 °F 12% 29.70 in 10.0 mi SW 20.7 mph 28.8 mph N/A   Clear
2:55 PM 92.8 °F 30.2 °F 11% 29.69 in 10.0 mi SW 21.9 mph 29.9 mph N/A   Clear
3:15 PM 91.9 °F 31.5 °F 12% 29.69 in 10.0 mi WSW 17.3 mph 25.3 mph N/A   Clear
3:35 PM 91.2 °F 31.3 °F 12% 29.68 in 10.0 mi West 17.3 mph 26.5 mph N/A   Clear
3:55 PM 91.0 °F 30.7 °F 12% 29.67 in 10.0 mi WSW 17.3 mph 27.6 mph N/A   Clear
4:15 PM 91.9 °F 30.0 °F 11% 29.66 in 10.0 mi West 13.8 mph 24.2 mph N/A   Clear
4:35 PM 92.3 °F 29.8 °F 11% 29.66 in 10.0 mi West 18.4 mph 28.8 mph N/A   Clear
4:55 PM 91.9 °F 29.5 °F 11% 29.64 in 10.0 mi WSW 19.6 mph - N/A   Clear
5:15 PM 92.3 °F 28.8 °F 10% 29.64 in 10.0 mi West 8.1 mph 21.9 mph N/A   Clear
5:35 PM 92.5 °F 27.9 °F 10% 29.63 in 10.0 mi West 17.3 mph 21.9 mph N/A   Clear
5:55 PM 91.6 °F 28.6 °F 10% 29.62 in 10.0 mi West 10.4 mph - N/A   Clear
6:15 PM 91.4 °F 27.7 °F 10% 29.62 in 10.0 mi West 10.4 mph 19.6 mph N/A   Clear
6:35 PM 91.2 °F 27.1 °F 10% 29.62 in 10.0 mi WSW 13.8 mph - N/A   Clear
6:55 PM 90.7 °F 27.0 °F 10% 29.62 in 10.0 mi West 11.5 mph - N/A   Clear
7:15 PM 90.1 °F 25.9 °F 10% 29.61 in 10.0 mi West 9.2 mph - N/A   Clear
7:35 PM 88.3 °F 25.9 °F 10% 29.61 in 10.0 mi West 6.9 mph - N/A   Clear
7:55 PM 86.0 °F 26.2 °F 11% 29.61 in 10.0 mi West 3.5 mph - N/A   Clear
8:15 PM 82.8 °F 26.8 °F 13% 29.61 in 10.0 mi Calm Calm - N/A   Clear
8:35 PM 77.4 °F 27.0 °F 16% 29.62 in 10.0 mi SSE 16.1 mph 19.6 mph N/A   Clear
8:55 PM 80.1 °F 32.0 °F 17% 29.63 in 10.0 mi South 15.0 mph - N/A   Clear
9:15 PM 77.7 °F 32.4 °F 19% 29.64 in 10.0 mi South 11.5 mph - N/A   Clear
9:35 PM 73.9 °F 32.5 °F 22% 29.64 in 10.0 mi South 5.8 mph - N/A   Clear
9:55 PM 73.0 °F 32.9 °F 23% 29.64 in 10.0 mi South 11.5 mph - N/A   Clear
10:35 PM 75.2 °F 31.3 °F 20% 29.65 in 10.0 mi South 19.6 mph - N/A   Clear
10:55 PM 74.8 °F 30.2 °F 19% 29.65 in 10.0 mi South 21.9 mph 26.5 mph N/A   Clear
11:15 PM 73.9 °F 30.2 °F 20% 29.65 in 10.0 mi South 20.7 mph - N/A   Clear
11:35 PM 72.0 °F 30.6 °F 22% 29.65 in 10.0 mi South 20.7 mph 24.2 mph N/A   Clear
11:55 PM 72.3 °F 32.0 °F 23% 29.65 in 10.0 mi South 25.3 mph 31.1 mph N/A   Clear